Location: Conjunto Santa Maria
(19.9513°S, 43.9599°W)
Time: 13:18:38
(UTC+00:00)

Cosmos 2084 Rocket - Pass Details

Date: 21 January 2021
Orbit: 532 x 649 km, 62.8° (Epoch: 03 March)

Event Time Altitude Azimuth Distance (km) Brightness Sun altitude
Rises 22:25:09 0° 194° (SSW) 2,778 7.5 -10.4°
Reaches altitude 10° 22:27:37 10° 183° (S) 1,856 6.4 -10.9°
Maximum altitude 22:31:21 32° 120° (ESE) 966 4.3 -11.7°
Enters shadow 22:33:38 18° 68° (ENE) 1,356 4.7 -12.1°
